Location: Newark
(25.1500°N, 87.0200°E)
Time: 08:07:13
(UTC+00:00)

N. Korean satellite - Visible Passes

Search period start: 12 December 2019 00:00
Search period end: 22 December 2019 00:00
Orbit: 455 x 506 km, 97.2° (Epoch: 11 December)

Date Brightness Start Highest point End Pass type
(mag) Time Alt. Az. Time Alt. Az. Time Alt. Az.
12 Dec 9.7 23:09:11 10° ENE 23:11:20 16° E 23:13:28 10° SE visible
14 Dec 6.9 00:16:00 10° N 00:19:14 37° WNW 00:22:26 10° SW visible
14 Dec 9.9 12:17:07 10° SW 12:19:28 16° W 12:21:50 10° WNW visible
14 Dec 6.6 23:50:24 10° NNE 23:53:52 77° ESE 23:57:16 10° S visible
15 Dec 8.4 11:50:33 10° SSW 11:54:00 37° W 11:57:26 10° NNW visible
15 Dec 8.7 23:25:24 10° NE 23:28:25 28° E 23:31:23 10° SSE visible
16 Dec 9.9 23:01:37 10° ENE 23:02:53 12° E 23:04:09 10° ESE visible
18 Dec 6.5 00:07:31 10° N 00:10:51 52° WNW 00:14:10 10° SSW visible
18 Dec 9.6 12:08:15 10° SSW 12:11:05 21° W 12:13:54 10° NW visible
18 Dec 7.2 23:42:05 10° NNE 23:45:26 54° E 23:48:47 10° S visible
19 Dec 9.2 23:17:18 10° NE 23:19:58 21° E 23:22:37 10° SSE visible
21 Dec 7.4 00:24:51 10° NNW 00:27:48 27° WNW 00:30:43 10° SW visible
21 Dec 10.1 12:26:49 10° WSW 12:28:10 12° W 12:29:33 10° WNW visible
